Date,TemperatureHighF,TemperatureAvgF,TemperatureLowF,DewpointHighF,DewpointAvgF,DewpointLowF,HumidityHigh,HumidityAvg,HumidityLow,PressureMaxIn,PressureMinIn,WindSpeedMaxMPH,WindSpeedAvgMPH,GustSpeedMaxMPH,PrecipitationSumIn
2013-1-1,58,40,30,40,31,27,95,76,33,30.30,30.12,1,0,6,0.00
2013-1-2,56,37,26,38,30,24,94,78,45,30.25,30.06,3,0,6,0.00
2013-1-3,56,38,26,39,31,23,94,79,45,30.43,30.10,3,0,5,0.00
2013-1-4,56,38,24,43,33,24,100,84,56,30.43,30.11,0,0,8,0.08
2013-1-5,47,40,29,44,38,26,94,90,82,30.20,29.98,1,0,4,0.49
2013-1-6,55,46,36,48,42,33,96,88,68,30.13,30.00,2,0,5,0.05
2013-1-7,61,49,33,49,42,31,100,79,61,30.17,30.08,2,0,7,0.00
2013-1-8,61,52,39,51,46,37,95,82,65,30.19,30.05,0,0,5,0.00
2013-1-9,51,45,35,48,40,30,95,83,67,30.05,29.91,1,0,10,0.00
2013-1-10,52,40,29,37,30,26,93,70,40,30.14,30.01,3,0,14,0.01
2013-1-11,54,41,31,39,32,26,88,72,51,30.20,30.05,3,0,10,0.01
2013-1-12,51,35,27,41,28,24,100,81,42,30.20,30.06,0,0,3,0.00
2013-1-13,52,34,23,41,26,20,100,77,30,30.22,30.11,0,0,5,0.01
2013-1-14,56,40,25,33,26,14,100,60,30,30.35,30.17,1,0,5,0.01
2013-1-15,55,38,26,38,28,22,92,72,41,30.43,30.33,0,0,5,0.01
2013-1-16,60,38,25,39,30,22,93,75,43,30.40,30.21,1,0,3,0.01
2013-1-17,62,40,25,40,31,22,93,75,36,30.22,30.08,1,0,4,0.00
2013-1-18,63,41,27,42,33,24,93,74,36,30.19,30.06,1,0,6,0.01
2013-1-19,65,42,25,40,32,22,94,72,36,30.21,30.08,0,0,3,0.01
2013-1-20,65,42,25,39,32,22,94,70,34,30.18,30.05,0,0,3,0.00
2013-1-21,62,42,25,41,33,22,94,73,37,30.12,30.01,0,0,3,0.01
2013-1-22,62,44,27,43,35,24,95,74,44,30.07,29.92,0,0,3,0.01
2013-1-23,51,47,42,48,44,38,95,90,84,30.02,29.89,0,0,4,0.38
2013-1-24,61,52,47,56,49,45,97,91,74,30.12,30.00,2,0,5,0.04
2013-1-25,63,54,46,55,50,44,96,88,70,30.13,29.97,1,0,4,0.00
2013-1-26,60,48,37,47,39,33,95,76,43,30.01,29.90,3,0,10,0.01
2013-1-27,59,44,30,42,32,27,96,68,31,30.12,30.00,7,0,16,0.01
2013-1-28,61,47,35,40,36,31,91,67,41,30.23,30.11,5,0,12,0.00
2013-1-29,66,47,33,45,38,30,94,72,39,30.29,30.19,1,0,6,0.00
2013-1-30,68,49,33,47,39,31,95,72,42,30.27,30.18,1,0,5,0.00
2013-1-31,68,50,31,48,40,28,96,72,42,30.25,29.17,1,0,4,0.00
2013-2-1,75,47,31,52,39,28,95,76,41,30.15,28.79,0,0,3,0.00
2013-2-2,64,46,37,55,41,34,93,83,59,30.24,28.91,1,0,5,0.00
2013-2-3,62,48,36,48,41,33,93,81,57,30.19,30.06,2,0,5,0.00
2013-2-4,55,44,37,49,40,34,95,88,75,30.11,30.00,1,0,6,0.00
2013-2-5,62,50,43,49,44,37,94,81,57,30.09,29.84,2,0,9,0.02
2013-2-6,61,44,30,44,36,27,96,75,51,30.15,29.99,1,0,7,0.01
2013-2-7,55,45,37,47,38,33,94,79,43,30.09,29.92,3,0,9,0.11
2013-2-8,60,43,32,42,34,28,95,73,30,29.96,29.86,4,0,12,0.01
2013-2-9,62,42,27,40,28,21,94,65,21,30.03,29.94,1,0,7,0.01
2013-2-10,65,42,27,44,32,24,94,70,32,30.07,29.93,2,0,7,0.01
2013-2-11,68,46,30,43,32,27,94,66,26,30.16,30.01,1,0,7,0.00
2013-2-12,63,45,32,45,37,30,95,76,44,30.30,30.16,1,0,5,0.00
2013-2-13,66,45,30,46,37,27,95,76,46,30.29,30.12,2,0,5,0.00
2013-2-14,70,48,32,50,39,29,95,74,44,30.20,30.06,1,0,5,0.00
2013-2-15,73,49,32,48,38,29,95,70,33,30.21,30.09,1,0,5,0.00
2013-2-16,75,50,34,51,39,31,93,72,33,30.19,29.93,1,0,5,0.00
2013-2-17,66,48,37,46,38,32,94,73,33,29.99,29.86,1,0,7,0.01
2013-2-18,52,41,33,43,36,29,93,83,66,29.97,29.80,0,0,7,0.01
2013-2-19,53,42,32,42,35,27,93,77,48,29.90,29.64,2,0,12,0.14
2013-2-20,63,43,27,42,30,24,95,66,28,30.00,29.80,5,0,10,0.01
2013-2-21,64,46,31,38,32,27,90,63,27,30.11,29.88,3,0,9,0.01
2013-2-22,67,47,31,45,37,28,92,71,36,30.20,30.06,3,0,7,0.00
2013-2-23,62,50,38,43,33,26,88,57,27,30.21,30.08,5,0,15,0.00
2013-2-24,69,46,29,39,30,21,90,60,17,30.22,30.08,2,0,7,0.00
2013-2-25,70,46,31,43,31,9,90,64,10,30.22,30.07,6,0,17,0.00
2013-2-26,72,47,29,40,32,26,92,62,22,30.18,30.06,1,0,6,0.00
2013-2-27,72,49,30,44,36,26,90,66,31,30.34,30.15,1,0,5,0.00
2013-2-28,73,55,42,53,46,39,92,75,48,30.38,30.28,1,0,6,0.00
2013-3-1,74,53,37,52,43,34,94,72,38,30.37,30.17,3,0,6,0.00
2013-3-2,69,49,41,53,43,38,92,81,53,30.19,30.06,0,0,3,0.00
2013-3-3,55,48,45,44,43,41,89,83,67,30.02,29.96,1,0,3,0.00
2013-3-4,58,48,36,46,42,32,91,81,60,30.08,29.98,2,0,6,0.00
2013-3-5,54,45,34,47,40,31,95,84,66,30.01,29.70,5,1,19,0.51
2013-3-6,57,47,37,48,42,35,92,81,53,29.98,29.70,4,1,19,0.95
2013-3-7,55,45,35,45,38,32,94,79,46,29.95,29.80,1,0,5,0.01
2013-3-8,64,47,31,45,37,28,95,72,40,29.97,29.78,2,0,9,0.00
2013-3-9,72,50,32,45,37,29,93,67,32,30.26,29.97,1,0,7,0.00
2013-3-10,72,50,32,45,36,27,94,68,21,30.29,30.17,3,0,7,0.00
2013-3-11,72,50,34,49,40,31,94,73,31,30.21,30.03,2,0,7,0.00
2013-3-12,76,54,39,55,44,36,94,74,33,30.10,30.00,1,0,6,0.00
2013-3-13,80,56,38,55,45,35,95,72,31,30.10,29.99,1,0,5,0.00
2013-3-14,74,54,42,56,46,39,93,75,33,30.10,30.00,1,0,7,0.00
2013-3-15,77,54,39,55,44,36,94,73,33,30.07,29.94,3,0,9,0.00
2013-3-16,78,56,36,51,40,29,96,62,19,30.06,29.96,6,0,16,0.00
2013-3-17,69,55,37,45,39,32,87,58,32,30.08,29.97,1,0,6,0.00
2013-3-18,69,50,36,47,40,33,92,72,41,30.04,29.95,1,0,5,0.00
2013-3-19,60,51,42,48,43,39,91,77,55,30.06,29.99,0,0,5,0.04
2013-3-20,61,51,46,56,48,43,94,89,77,30.07,29.99,2,0,8,0.49
2013-3-21,68,51,35,46,41,32,94,72,37,30.08,29.94,1,0,7,0.01
2013-3-22,70,51,31,43,34,24,94,61,19,30.08,29.96,2,0,10,0.01
2013-3-23,68,50,33,43,36,30,92,65,27,30.09,29.97,1,0,9,0.00
2013-3-24,70,51,35,47,40,32,93,70,37,30.03,29.90,1,0,5,0.00
2013-3-25,60,48,39,48,42,35,93,79,54,29.97,29.86,1,0,8,0.00
2013-3-26,67,50,41,48,42,38,94,77,42,29.94,29.86,2,0,6,0.00
2013-3-27,60,51,44,53,46,39,90,83,67,29.95,29.88,1,0,7,0.00
2013-3-28,64,54,49,55,50,45,92,85,67,30.02,29.93,1,0,5,0.04
2013-3-29,76,58,47,56,50,44,94,76,43,30.03,29.94,2,0,7,0.01
2013-3-30,67,56,50,55,49,-100,92,82,61,30.01,29.93,3,0,9,0.09
2013-3-31,60,55,50,56,52,48,94,92,82,30.00,29.93,1,0,7,1.50
2013-4-1,65,55,47,55,51,44,96,86,62,30.09,29.98,2,0,5,0.41
2013-4-2,69,53,43,55,48,41,95,83,53,30.12,30.02,1,0,7,0.01
2013-4-3,75,55,47,56,49,45,94,82,51,30.08,29.92,2,0,6,0.01
2013-4-4,58,53,49,57,51,46,95,93,90,30.05,29.92,2,0,7,1.03
2013-4-5,64,56,50,55,51,48,96,86,63,30.14,30.04,2,0,8,0.02
2013-4-6,68,57,51,57,50,47,94,82,53,30.14,30.05,2,0,9,0.02
2013-4-7,63,55,50,56,49,43,94,81,61,30.11,29.76,2,0,10,0.09
2013-4-8,72,56,45,45,36,30,85,50,25,29.99,29.74,5,2,17,0.00
2013-4-9,80,58,37,47,38,32,92,56,19,30.08,29.97,4,0,11,0.00
2013-4-10,87,64,44,57,47,39,93,60,20,30.14,29.97,7,1,20,0.00
2013-4-11,78,62,45,49,45,40,85,56,29,30.02,29.77,2,0,6,0.00
2013-4-12,78,55,41,53,45,38,94,73,27,29.87,29.75,1,0,5,0.00
2013-4-13,78,58,42,51,41,33,93,59,22,29.84,29.73,4,0,15,0.00
2013-4-14,73,54,38,44,38,28,90,60,24,29.91,29.79,11,1,22,0.00
2013-4-15,63,51,40,42,34,26,87,56,27,29.94,29.79,5,1,15,0.00
2013-4-16,70,52,33,38,31,21,88,50,16,30.11,29.89,4,1,12,0.00
2013-4-17,74,56,35,43,34,26,92,52,17,30.22,30.11,3,0,11,0.00
2013-4-18,79,57,39,47,40,34,88,59,23,30.26,30.12,2,0,7,0.29
2013-4-19,82,60,41,55,45,38,93,63,26,30.17,30.01,7,1,18,0.03
2013-4-20,82,64,41,48,44,37,91,53,22,30.11,29.91,3,0,9,0.00
2013-4-21,87,63,42,56,46,39,94,62,21,29.97,29.86,3,0,7,0.00
2013-4-22,89,65,45,57,47,37,93,60,17,29.91,29.78,2,0,8,0.00
2013-4-23,82,63,46,48,39,22,86,47,16,29.88,29.79,3,1,12,0.00
2013-4-24,64,52,43,50,44,38,91,78,60,29.98,29.78,5,1,12,0.00
2013-4-25,72,55,46,51,46,41,86,73,48,30.14,29.89,3,0,9,0.02
2013-4-26,71,54,41,55,46,37,93,77,53,30.20,30.06,2,0,7,0.02
2013-4-27,73,55,44,56,48,39,94,79,53,30.26,30.00,2,0,7,0.00
2013-4-28,87,62,41,59,48,38,94,68,28,30.08,29.81,1,0,7,0.01
2013-4-29,91,68,47,60,50,44,93,60,26,29.86,29.71,2,0,9,0.01
2013-4-30,88,66,45,52,42,32,93,51,15,29.85,29.72,3,0,10,0.00
2013-5-1,88,68,45,48,37,25,80,40,10,30.07,29.80,2,0,11,0.00
2013-5-2,93,67,40,52,39,25,90,47,12,30.14,30.01,2,0,9,0.00
2013-5-3,92,68,40,50,43,34,88,48,15,30.04,29.74,1,0,6,0.00
2013-5-4,90,61,43,58,45,39,92,65,19,29.74,29.52,5,1,11,0.00
2013-5-5,65,58,53,51,49,48,83,72,60,29.79,29.57,3,0,12,0.00
2013-5-6,70,59,49,54,50,45,92,73,46,29.95,29.73,4,0,11,0.00
2013-5-7,73,60,49,57,50,45,93,72,39,30.07,29.91,3,0,9,0.00
2013-5-8,69,56,48,55,49,44,91,79,58,30.20,29.97,2,0,8,0.00
2013-5-9,75,56,46,57,48,42,93,76,49,30.14,30.01,2,0,7,0.00
2013-5-10,76,58,46,58,48,-100,91,76,50,30.15,30.03,2,0,6,0.00
2013-5-11,85,60,46,62,50,-100,94,74,43,30.12,29.99,1,0,6,0.00
2013-5-12,87,59,45,63,49,43,95,74,24,30.14,29.95,3,0,6,0.00
2013-5-13,90,64,47,63,52,43,94,70,33,30.11,29.83,1,0,7,0.00
2013-5-14,90,65,47,59,50,42,93,65,30,29.95,29.79,2,0,7,0.00
2013-5-15,81,59,40,51,45,36,93,63,33,30.04,29.84,4,0,11,0.00
2013-5-16,74,58,53,54,33,-100,86,65,41,29.98,29.87,4,1,13,0.00
2013-5-17,74,56,40,50,41,-100,93,65,33,30.02,29.88,2,0,8,0.00
2013-5-18,84,61,38,52,44,34,93,59,29,30.08,29.98,3,0,11,0.00
2013-5-19,86,65,41,51,44,37,91,53,20,30.11,29.93,3,0,11,0.00
2013-5-20,90,66,44,59,45,35,94,56,15,29.99,29.84,3,0,12,0.00
2013-5-21,76,59,44,50,42,35,91,59,27,29.99,29.84,4,0,11,0.00
2013-5-22,72,57,46,42,33,27,65,41,24,30.04,29.84,3,1,18,0.00
2013-5-23,76,58,37,44,39,32,88,55,27,29.98,29.84,3,0,10,0.00
2013-5-24,78,58,35,47,40,31,92,58,27,29.94,29.84,3,0,9,0.00
2013-5-25,78,57,38,50,42,34,90,63,31,29.98,29.88,1,0,9,0.00
2013-5-26,73,60,47,54,48,42,91,65,41,30.05,29.96,4,1,13,0.00
2013-5-27,63,55,45,56,49,40,91,82,70,30.06,29.91,3,0,7,0.02
2013-5-28,75,62,54,60,54,48,94,76,49,29.93,29.81,4,0,9,0.02
2013-5-29,79,65,52,55,52,45,86,65,41,29.89,29.80,2,0,10,0.00
2013-5-30,84,61,39,50,43,36,93,59,26,29.92,29.81,3,0,9,0.00
2013-5-31,93,65,43,54,47,39,92,58,21,29.95,29.83,2,0,9,0.00
2013-6-1,97,70,47,60,51,43,91,58,24,29.87,29.70,1,0,6,0.00
2013-6-2,87,66,46,56,50,43,91,61,32,29.72,29.56,1,0,7,0.00
2013-6-3,68,56,45,52,48,41,92,74,55,29.81,29.63,4,1,11,0.00
2013-6-4,66,57,53,53,50,48,85,77,60,29.91,29.76,4,0,11,0.00
2013-6-5,73,59,52,56,50,47,87,74,50,29.93,29.85,2,0,9,0.00
2013-6-6,78,59,51,57,50,47,87,74,47,29.90,29.78,2,0,6,0.00
2013-6-7,89,65,51,62,53,47,92,70,36,29.83,29.65,2,0,6,0.00
2013-6-8,87,63,52,62,53,49,92,73,40,29.77,29.64,4,0,12,0.00
2013-6-9,66,59,56,55,53,52,90,81,66,29.87,29.77,2,0,10,0.00
2013-6-10,62,58,55,56,53,50,94,86,73,29.93,29.73,1,0,7,0.01
2013-6-11,83,64,52,59,53,45,92,70,36,29.96,29.80,1,0,7,0.00
2013-6-12,87,64,39,52,43,33,93,54,15,29.93,29.80,3,0,10,0.00
2013-6-13,88,64,39,50,43,35,89,52,24,30.02,29.43,3,0,11,0.00
2013-6-14,90,68,45,55,47,41,90,54,21,29.94,29.76,1,0,7,0.00
2013-6-15,82,60,41,55,47,37,92,66,36,29.91,29.76,2,0,11,0.00
2013-6-16,89,64,41,58,46,38,93,60,25,30.01,29.90,2,0,11,0.00
2013-6-17,81,62,44,56,49,39,90,64,40,30.01,29.93,4,0,11,0.00
2013-6-18,74,60,46,51,47,42,91,65,39,29.96,29.89,5,1,15,0.00
2013-6-19,80,63,48,49,46,42,82,56,33,29.99,29.93,2,0,9,0.00
2013-6-20,83,60,42,52,45,38,90,61,27,29.96,29.87,1,0,7,0.00
2013-6-21,89,88,86,50,48,46,28,26,24,29.88,29.82,0,0,5,0.00
2013-6-22,92,81,46,54,49,42,89,38,21,29.85,29.76,1,0,8,0.00
2013-6-23,72,62,54,60,54,48,90,77,65,29.79,29.73,2,0,9,0.00
2013-6-24,63,59,56,58,55,52,93,87,80,29.82,29.72,0,0,6,0.04
2013-6-25,64,61,58,63,60,56,95,94,93,29.93,29.80,1,0,7,0.04
2013-6-26,81,68,60,68,62,57,96,83,53,29.99,29.90,2,0,8,0.01
2013-6-27,91,71,56,66,60,53,95,72,38,30.02,29.91,1,0,6,0.00
2013-6-28,96,74,56,69,62,53,94,70,38,29.96,29.83,0,0,5,0.00
2013-6-29,102,78,57,69,61,53,93,61,26,29.83,29.72,1,0,5,0.00
2013-6-30,95,76,56,67,60,52,92,61,36,29.76,29.67,0,0,5,0.00
2013-7-1,95,72,55,69,59,51,92,66,38,29.76,29.70,0,0,4,0.00
2013-7-2,90,69,58,64,57,53,88,70,41,29.85,29.73,3,0,11,0.00
2013-7-3,88,69,55,66,57,52,93,69,40,29.85,29.70,2,0,10,0.00
2013-7-4,97,76,60,66,57,42,87,58,21,29.74,29.60,1,0,10,0.00
2013-7-5,84,66,50,58,51,45,89,62,40,29.67,29.61,1,0,7,0.00
2013-7-6,76,58,49,58,50,46,93,77,49,29.72,29.66,2,0,8,0.00
2013-7-7,79,60,51,59,52,48,91,77,45,29.79,29.71,2,0,9,0.00
2013-7-8,81,58,52,60,50,-100,91,79,43,29.91,29.79,1,0,5,0.00
2013-7-9,92,66,51,60,53,48,94,70,27,29.96,29.87,1,0,5,0.00
2013-7-10,78,59,48,59,47,-100,93,72,42,29.92,29.82,1,0,7,0.00
2013-7-11,76,58,49,57,50,45,91,77,51,29.88,29.79,1,0,6,0.00
2013-7-12,78,60,51,57,51,46,89,76,48,29.88,29.79,1,0,6,0.00
2013-7-13,83,61,44,59,50,41,94,71,39,29.88,29.82,1,0,7,0.00
2013-7-14,77,61,49,57,52,45,92,74,47,29.93,29.82,2,0,7,0.01
2013-7-15,71,57,50,55,50,47,90,80,55,29.86,29.77,2,0,8,0.01
2013-7-16,69,58,52,56,52,48,93,82,63,29.95,29.79,2,0,6,0.00
2013-7-17,80,59,45,60,52,42,95,78,49,30.02,29.93,1,0,7,0.00
2013-7-18,81,63,51,61,54,47,94,76,46,29.99,29.85,1,0,4,0.00
2013-7-19,84,63,49,61,53,45,93,72,43,29.88,29.73,1,0,6,0.00
2013-7-20,85,60,48,61,51,44,94,75,41,29.79,29.65,1,0,6,0.00
2013-7-21,81,62,53,58,52,48,90,71,42,29.82,29.70,2,0,8,0.00
2013-7-22,86,63,49,61,53,46,92,74,37,29.91,29.82,1,0,7,0.00
2013-7-23,77,66,57,59,56,52,88,70,51,29.93,29.87,1,0,5,0.00
2013-7-24,85,64,51,60,53,48,94,72,40,29.93,29.83,1,0,5,0.00
2013-7-25,80,63,52,58,52,48,91,71,45,29.95,29.85,1,0,7,0.00
2013-7-26,77,59,50,58,51,47,93,78,51,30.03,29.91,1,0,7,0.00
2013-7-27,76,60,52,57,52,49,90,77,51,29.96,29.79,1,0,7,0.00
2013-7-28,72,58,52,57,51,48,92,81,57,29.82,29.72,1,0,9,0.00
2013-7-29,71,58,53,56,52,49,89,79,58,29.94,29.76,2,0,10,0.00
2013-7-30,72,59,52,58,52,48,92,80,54,30.04,29.94,2,0,7,0.00
2013-7-31,82,60,53,58,53,46,94,78,40,30.02,29.89,0,0,5,0.00
2013-8-1,85,64,41,57,50,38,95,65,33,29.97,29.87,1,0,5,0.00
2013-8-2,87,62,42,56,48,39,94,67,26,29.90,29.80,2,0,8,0.00
2013-8-3,77,58,45,58,50,41,94,75,47,29.90,29.83,2,0,10,0.00
2013-8-4,74,58,50,57,50,45,92,79,50,29.93,29.86,1,0,7,0.00
2013-8-5,72,58,49,56,50,44,88,77,53,29.95,29.87,2,0,9,0.00
2013-8-6,75,58,50,56,51,47,89,78,49,29.97,29.91,2,0,10,0.00
2013-8-7,70,61,55,57,54,51,90,78,63,30.02,29.96,2,0,7,0.00
2013-8-8,75,61,49,58,53,46,94,76,53,29.96,29.86,2,0,8,0.00
2013-8-9,75,59,51,58,52,47,94,79,50,29.91,29.84,2,0,6,0.00
2013-8-10,77,61,51,58,54,47,91,77,50,29.97,29.91,1,0,5,0.00
2013-8-11,80,61,52,61,53,47,94,78,46,29.95,29.84,1,0,7,0.00
2013-8-12,80,61,51,59,53,46,93,76,46,29.92,29.85,1,0,6,0.00
2013-8-13,90,62,50,60,50,-100,94,73,30,29.91,29.81,1,0,6,0.00
2013-8-14,93,63,44,58,43,-100,94,65,24,29.89,29.80,1,0,7,0.00
2013-8-15,89,59,50,63,37,-100,95,66,40,29.87,29.83,1,0,5,0.00
2013-8-16,90,63,55,65,50,-100,93,73,30,32.77,29.85,1,0,7,0.00
2013-8-17,93,65,51,60,51,-100,92,66,33,29.90,29.77,1,0,4,0.00
2013-8-18,95,64,51,62,54,48,94,73,32,29.83,29.70,0,0,3,0.00
2013-8-19,86,63,55,61,44,-100,90,68,38,29.83,29.72,1,0,6,0.00
2013-8-20,80,63,58,60,54,-100,91,79,46,29.85,29.73,2,0,7,0.00
2013-8-21,78,62,53,57,53,47,87,75,47,29.90,29.80,1,0,9,0.00
2013-8-22,75,62,49,57,52,46,92,73,46,29.90,29.78,3,0,7,0.00
2013-8-23,80,63,49,59,53,45,91,73,46,29.85,29.70,1,0,5,0.00
2013-8-24,83,61,45,60,49,-100,95,70,38,29.81,29.73,2,0,12,0.00
2013-9-7,98,69,46,58,45,-100,90,53,16,29.83,29.72,1,0,7,0.00
2013-9-8,93,65,48,59,50,44,94,66,27,29.82,29.68,1,0,4,0.00
2013-9-9,95,63,48,59,50,43,90,67,28,29.74,29.62,1,0,5,0.00
2013-9-10,72,61,53,60,56,49,92,84,65,29.83,29.65,2,0,8,0.01
2013-9-11,69,64,61,61,59,57,94,85,69,29.94,29.83,1,0,5,0.01
2013-9-12,81,65,55,63,57,51,90,77,48,29.91,29.80,1,0,5,0.00
2013-9-13,84,63,53,59,54,48,94,76,40,29.83,29.66,0,0,5,0.00
2013-9-14,83,60,49,59,50,-100,94,75,42,29.74,29.63,1,0,5,0.00
2013-9-15,82,63,48,60,53,43,93,72,40,29.78,29.69,1,0,8,0.00
2013-9-16,87,64,50,61,52,47,94,72,33,29.83,29.68,0,0,5,0.00
2013-9-17,82,65,45,54,47,42,93,58,29,29.80,29.72,5,1,14,0.00
2013-9-18,63,56,51,48,45,44,79,69,57,29.81,29.76,0,0,0,0.00
2013-9-19,90,62,41,54,44,37,91,61,17,29.78,29.67,1,0,6,0.00
2013-9-20,79,61,40,60,54,37,94,78,50,29.77,29.70,2,0,10,0.00
2013-9-21,70,61,53,61,54,-100,96,81,56,29.81,29.70,3,0,13,0.00
2013-9-22,76,60,43,57,49,41,95,72,42,29.93,29.81,1,0,12,0.00
2013-10-4,85,73,53,32,25,21,40,19,10,30.04,29.93,4,1,19,0.02
2013-10-5,89,72,39,40,33,25,87,30,10,30.14,30.04,1,0,5,0.00
2013-10-6,86,66,40,42,37,31,87,41,15,30.11,29.93,0,0,3,0.00
2013-10-7,86,64,37,44,39,32,88,47,19,29.98,29.75,1,0,4,0.00
2013-10-8,80,63,38,50,42,34,91,52,27,29.88,29.59,1,0,6,0.00
2013-10-9,76,68,50,47,40,37,88,39,27,29.65,29.53,3,0,9,0.00
2013-10-10,74,55,40,49,42,35,89,66,38,29.96,29.70,2,0,7,0.00
2013-10-11,70,51,40,52,44,36,92,78,45,30.13,29.91,1,0,5,0.00
2013-10-12,73,51,39,51,40,-100,93,72,39,30.01,29.80,1,0,5,0.00
2013-10-14,82,55,35,48,37,32,92,58,20,30.12,29.92,1,0,5,0.00
2013-10-15,86,60,34,44,33,29,90,48,14,30.09,29.87,1,0,7,0.00
2013-10-16,85,66,32,41,34,27,86,39,14,30.12,29.95,0,0,5,0.00
2013-10-17,85,64,34,41,36,29,87,42,17,30.01,29.89,1,0,5,0.00
2013-10-18,82,54,35,46,38,31,91,62,25,30.05,29.91,1,0,5,0.00
2013-10-19,87,57,35,49,36,-100,91,56,18,30.07,29.91,1,0,4,0.00
2013-10-20,80,55,36,47,41,32,92,65,29,30.02,29.83,1,0,3,0.00
2013-10-21,75,51,42,53,44,38,93,78,42,29.95,29.83,0,0,5,0.01
2013-10-22,79,52,40,51,43,36,94,75,37,30.00,29.84,0,0,4,0.01
2013-10-23,74,52,40,52,44,37,93,77,47,29.95,29.81,0,0,5,0.01
2013-10-24,67,53,45,51,46,41,93,79,53,30.01,29.83,1,0,5,0.01
2013-10-25,73,54,39,53,44,36,93,71,41,30.12,29.92,0,0,4,0.00
2013-10-30,71,50,34,48,38,31,91,68,42,30.09,29.92,1,0,5,0.00
2013-10-31,76,54,34,49,40,30,93,63,31,30.11,29.94,0,0,4,0.00
2013-11-1,80,58,36,49,41,33,92,58,27,30.08,29.89,0,0,5,0.00
2013-11-2,75,58,37,51,39,-100,92,56,28,29.95,29.78,3,0,8,0.00
2013-11-3,69,59,39,41,30,26,79,36,21,30.00,29.77,2,1,10,0.00
2013-11-4,73,61,31,41,29,23,89,36,16,29.97,29.80,3,1,13,0.00
2013-11-5,75,58,41,43,36,34,87,49,22,30.16,29.96,0,0,5,0.00
2013-11-6,77,55,38,52,38,33,87,60,26,30.19,30.00,0,0,5,0.00
2013-11-7,78,55,43,45,40,37,83,62,26,30.10,29.65,1,0,5,0.00
2013-11-8,77,58,38,46,40,34,92,56,30,30.01,29.83,2,0,7,0.00
2013-11-9,77,49,32,50,37,-100,92,69,29,29.97,29.81,1,0,5,0.00
2013-11-10,69,52,39,50,44,35,90,76,50,30.04,29.85,1,0,7,0.00
2013-11-11,68,54,39,50,45,36,91,75,45,30.18,29.85,0,0,3,0.00
2013-11-12,74,56,45,50,46,40,84,70,39,30.25,29.99,1,0,3,0.00
2013-11-13,82,57,39,53,45,36,93,70,36,30.24,29.97,1,0,5,0.00
2013-11-14,65,51,41,53,45,38,94,82,66,30.12,29.73,0,0,4,0.00
2013-11-15,70,58,38,49,38,32,94,51,30,29.77,29.54,0,0,5,0.01
2013-11-16,69,55,37,46,39,-100,91,61,38,29.84,29.58,3,0,12,0.00
2013-11-17,63,50,34,50,42,31,94,74,53,30.01,29.81,0,0,4,0.00
2013-11-18,60,49,34,48,42,31,93,78,63,30.14,29.89,1,0,5,0.00
2013-11-19,58,54,49,56,51,45,94,91,85,30.03,29.80,0,0,3,1.15
2013-11-20,59,55,47,57,53,44,95,93,89,29.91,29.73,0,0,3,0.87
2013-11-21,64,55,48,52,33,15,94,56,17,30.01,29.78,7,2,23,0.01
2013-11-26,65,48,32,46,39,29,91,72,45,30.26,29.72,0,0,3,0.01
2013-11-27,69,48,32,45,38,29,94,72,40,29.98,29.59,0,0,5,0.01
2013-11-28,73,49,33,46,37,30,93,69,31,30.14,29.62,0,0,3,0.00
2013-11-29,70,50,36,46,40,33,93,71,34,30.14,29.36,1,0,5,0.00
2013-11-30,71,49,35,48,38,-100,92,72,36,30.20,30.11,0,0,5,0.00
2013-12-1,72,52,34,51,41,31,93,70,37,30.27,29.58,0,0,5,0.00
2013-12-2,67,55,33,50,47,30,93,75,49,30.10,29.89,1,0,9,0.00
2013-12-3,58,50,33,49,31,22,86,52,26,29.87,29.39,4,1,14,0.00
2013-12-4,57,41,26,33,25,20,89,57,26,30.02,29.39,1,0,5,0.00
2013-12-5,44,28,20,29,22,16,91,79,56,30.10,29.33,0,0,0,0.00
2013-12-6,47,37,20,45,31,16,93,80,48,30.12,29.59,4,0,8,0.62
2013-12-7,47,36,26,39,26,-100,93,74,38,30.21,29.85,4,0,11,0.07
2013-12-8,49,32,23,33,22,17,91,71,30,30.28,30.15,1,0,5,0.01
2013-12-9,54,31,19,32,21,15,91,70,27,30.40,30.26,1,0,4,0.01
2013-12-17,64,52,29,43,37,26,91,60,38,30.13,29.98,0,0,3,0.00
2013-12-18,61,45,31,46,38,28,93,79,58,29.95,29.70,0,0,5,0.01
2013-12-19,62,47,35,37,29,15,88,54,21,29.88,29.47,3,0,14,0.01
2013-12-20,66,51,26,34,26,20,87,44,17,29.94,29.47,0,0,5,0.00
2013-12-21,68,59,45,50,40,-100,93,55,41,29.98,29.84,0,0,4,0.00
2013-12-22,68,50,31,48,39,28,94,68,41,30.19,30.03,1,0,6,0.01
2013-12-23,68,48,29,46,37,26,95,69,37,32.77,28.53,0,0,3,0.01
2013-12-27,57,42,27,40,33,23,90,72,46,30.18,30.03,0,0,2,0.01
2013-12-28,71,44,24,40,30,-100,93,65,30,30.10,29.69,0,0,3,0.00
2013-12-29,68,46,25,36,28,22,92,57,21,30.11,29.77,1,0,4,0.01
2013-12-30,54,43,26,35,32,22,86,67,47,30.18,30.11,0,0,0,0.00
2013-12-31,64,48,31,43,36,27,90,68,38,30.21,30.09,0,0,4,0.00
2014-1-1,67,45,26,41,32,23,94,67,28,30.14,30.05,0,0,3,0.00
2014-1-2,65,48,29,41,35,26,91,65,36,30.14,29.48,0,0,3,0.00